Find Starlink 32379

NORAD ID: 61851 Int'l Des: 2024-202 Owner: SPXS Country: US Constellation: starlink operational
LEOCIRCULAR

实时位置

正在加载3D地球...

关于 Starlink 32379

正在加载描述...

即将过境

Passes for default location (London). Set your location on the main map for personalized predictions.

高度历史

Loading altitude history...

两行轨道根数

1 61851U 24202G 26126.71875154 -.00001849 00000-0 -57724-4 0 9999
2 61851 42.9983 258.9197 0000647 240.7804 119.2982 15.27558499 84336
Epoch: May 6, 2026 • Age: 8 hours

当前状态

高度 486.0 km
速度 7.63 km/s
星下点 39.97°N, 74.44°E
发射日期 Nov 7, 2024
运行时间 1.4 years
类型 internet

技术详情

分类 Payload
质量 730.00 kg
干质量 700.00 kg
总质量 730.00 kg
长度 0.30 m
直径 4.10 m
跨度 29.00 m
形状 Box + pan
制造商 SPXS
平台类型 Starlink V2M
阶段状态 In Orbit
所有者/国家 SPXS/US

Most Searched